Wind_Speed
66 65 69 64 68 64 60 41 27 25 28 31 30 32 29 29 27 25 23 20 18 18 21 21 20 23 28 29 30 29 29 34 35 35 38 40 43 43 40 42 47 55 62 65 69 72 78
62 63 66 61 65 58 52 37 30 30 29 29 30 31 29 25 22 20 15 15 16 18 18 20 22 22 22 22 23 26 26 30 31 32 32 36 39 42 42 39 44 56 55 58 61 69 71
60 64 64 61 63 51 44 34 29 32 30 27 28 30 24 20 18 15 14 15 14 16 19 20 20 21 23 24 27 29 30 31 32 35 35 36 37 37 42 43 46 49 49 53 61 63 64
61 62 60 63 57 48 36 27 27 32 30 27 26 23 18 16 16 15 16 16 16 16 18 18 18 19 19 22 23 25 25 25 27 29 31 34 37 40 40 42 43 42 45 47 49 55 59
62 64 60 59 52 42 31 22 29 29 26 24 22 18 15 16 16 17 17 17 17 17 17 18 18 20 21 20 20 21 22 23 25 27 28 29 31 34 35 35 38 42 43 44 46 49 53
58 61 63 57 48 36 28 23 26 27 24 21 19 16 17 17 16 18 18 19 19 19 20 19 18 19 20 21 19 19 20 21 23 24 25 25 26 30 33 35 37 39 41 46 46 45 46
60 62 62 57 42 32 24 24 23 24 26 16 14 18 18 17 20 20 20 20 20 21 23 23 19 18 18 19 18 18 18 19 19 22 23 24 26 28 28 28 31 32 38 41 42 44 42
61 58 54 47 40 30 22 22 22 24 19 12 15 20 21 23 23 23 22 20 19 19 21 22 21 22 21 19 16 16 17 17 18 17 18 18 18 21 23 23 25 27 31 33 30 33 31
58 58 51 46 35 27 25 22 20 21 13 12 18 23 27 27 25 24 25 25 23 23 22 24 20 19 18 15 15 13 12 13 15 13 12 14 14 15 15 19 20 18 24 29 27 31 28
61 50 55 39 35 28 27 21 20 16 15 20 24 26 26 27 28 29 28 25 23 21 18 19 18 18 16 17 17 15 13 12 11 13 14 14 15 15 17 20 20 22 26 26 27 26 24
63 53 42 37 35 31 27 19 20 18 23 27 27 28 29 30 29 29 29 27 24 22 17 19 18 21 20 19 18 19 16 16 14 14 13 12 13 13 18 20 16 16 17 18 20 22 25
60 47 39 39 36 34 25 19 21 26 30 29 30 30 30 29 29 29 28 27 24 22 21 23 24 23 21 20 20 19 16 15 14 14 13 11 11 11 13 14 14 16 18 20 22 24 23
54 36 40 42 39 36 22 22 27 33 32 31 31 30 30 30 31 31 29 28 27 23 24 24 23 23 20 19 17 16 13 11 9 7 6 7 6 6 7 8 10 13 15 16 18 20 15
42 37 40 45 43 35 22 28 36 34 32 34 33 31 30 31 31 30 30 28 27 25 25 25 22 20 18 16 14 11 10 9 8 7 8 9 9 7 5 4 2 2 3 4 5 6 7
43 42 45 46 46 33 25 35 41 35 35 36 34 33 33 33 32 29 27 27 25 26 26 23 20 16 15 12 9 9 9 10 10 13 16 16 13 10 8 5 3 3 5 8 10 11 12
44 44 52 50 47 32 32 44 42 37 39 38 36 37 36 33 31 28 28 27 27 25 21 19 17 15 13 9 10 13 13 13 16 17 14 10 7 5 4 3 4 6 8 10 12 13 14
47 50 55 53 46 33 41 48 41 41 41 39 39 38 36 32 31 29 26 25 24 22 20 18 16 13 10 11 14 13 14 15 14 11 9 7 4 2 2 5 8 9 11 14 18 22 24
50 58 57 54 45 37 50 48 43 44 42 39 40 38 36 34 32 29 27 25 23 21 20 18 15 13 13 12 13 14 14 13 11 10 9 8 7 6 7 9 12 15 17 19 21 25 29
57 63 59 54 45 40 53 49 46 45 43 42 42 39 36 34 33 31 28 25 22 20 20 18 15 15 14 14 15 14 13 11 10 11 11 10 10 10 11 12 13 16 20 24 26 27 30
64 64 59 54 45 46 54 50 48 48 45 42 40 38 34 32 32 30 31 26 22 21 20 18 15 15 15 14 13 12 12 12 12 11 11 13 13 13 14 16 17 21 24 27 30 34 36
69 66 60 53 46 52 55 51 49 47 46 41 42 38 37 35 31 32 31 28 24 21 20 17 16 15 16 17 15 14 14 14 14 13 14 15 16 16 18 20 22 26 30 30 33 36 40
71 67 60 53 49 58 57 52 50 49 47 42 42 39 38 34 28 28 29 28 26 22 17 16 17 20 20 21 19 18 16 15 15 15 17 18 18 20 22 23 27 31 34 35 38 43 47
72 64 59 52 50 61 57 53 49 48 49 46 46 42 39 33 31 27 28 29 29 25 21 20 22 20 19 19 18 19 20 20 20 20 21 22 24 25 26 29 33 35 36 39 43 50 53
66 63 58 52 52 62 58 53 50 47 43 47 45 43 40 36 31 31 31 30 31 30 25 24 22 21 19 21 21 21 22 21 23 24 25 27 28 28 31 34 34 35 42 45 49 54 57
67 63 58 53 53 61 59 56 51 45 46 50 47 44 40 37 32 30 24 29 32 34 31 28 24 23 23 24 25 24 24 24 27 28 29 30 32 34 35 34 38 41 47 51 55 59 59
66 62 55 50 54 63 59 59 55 49 47 50 48 46 42 37 32 29 27 28 31 32 32 32 30 26 26 27 27 28 29 31 31 33 33 35 35 35 37 42 44 48 53 56 61 64 62
65 60 54 48 52 62 59 58 58 51 48 50 49 46 42 39 35 30 30 30 34 35 32 30 32 31 30 31 31 31 30 31 29 33 35 35 38 42 47 49 52 53 56 61 65 63 62
63 57 54 52 51 56 60 58 59 53 49 47 50 47 43 43 39 33 26 28 32 34 35 36 35 36 35 35 35 33 33 32 33 35 38 39 42 48 52 56 56 61 64 67 66 65 66
62 59 55 53 52 52 58 61 60 57 52 49 47 48 48 41 39 38 38 34 30 30 32 33 36 39 39 38 36 36 34 35 37 39 44 46 51 55 56 59 64 66 69 70 69 70 72
Wind_Direction
304 302 305 309 307 303 303 296 282 265 267 271 270 276 271 269 265 263 258 251 243 228 216 212 207 213 214 216 215 212 215 216 220 224 227 231 230 235 235 234 234 236 234 234 234 235 237
300 301 304 308 307 302 300 288 271 265 270 271 276 280 270 265 261 255 237 236 225 216 205 202 205 206 203 201 201 212 220 224 223 229 229 233 234 235 235 235 238 238 237 236 237 234 239
296 299 304 306 303 302 297 280 271 269 272 272 284 279 266 261 252 227 217 213 202 192 189 188 192 197 199 202 204 209 212 219 218 223 226 227 231 235 237 236 238 240 245 244 241 242 243
292 293 304 306 298 297 288 270 265 267 276 283 286 269 262 246 218 209 204 197 182 175 180 185 190 190 194 202 206 210 210 210 219 226 228 230 230 231 235 238 240 245 247 249 248 249 253
290 295 303 303 293 290 274 261 262 271 286 290 272 255 238 213 202 199 187 177 173 171 173 178 182 186 190 194 202 204 205 207 213 216 221 225 229 233 238 242 244 245 249 253 254 258 259
290 292 303 303 290 278 260 254 263 283 297 283 253 231 204 197 193 179 171 167 166 169 172 175 182 183 184 186 188 199 204 205 209 211 217 224 228 229 230 236 240 244 248 249 252 256 258
284 291 300 299 279 265 248 250 270 293 296 263 226 199 192 189 174 166 167 168 172 173 172 169 170 175 170 176 177 189 197 199 208 216 209 214 222 228 233 235 239 242 245 248 253 256 257
281 286 294 291 268 258 237 248 277 295 281 229 206 182 178 172 167 166 164 167 168 173 173 161 161 163 163 164 173 179 185 190 199 205 208 213 224 229 233 237 242 247 252 256 254 260 261
275 283 284 280 248 239 230 249 275 284 237 203 182 170 172 169 166 161 154 153 157 160 166 155 164 164 157 155 159 177 175 187 188 181 199 201 216 218 221 227 232 236 244 248 248 250 251
272 277 281 261 233 218 224 250 272 256 200 183 165 164 166 160 162 159 156 157 156 155 170 157 159 146 145 147 153 159 162 160 177 181 191 188 202 211 218 225 233 235 233 241 253 258 257
268 275 264 238 222 211 221 243 256 214 188 174 163 162 161 162 159 158 159 155 154 155 164 158 158 152 161 162 157 162 162 162 171 164 173 179 199 204 210 221 225 231 243 250 256 264 269
266 259 238 220 211 207 219 238 230 188 178 167 161 163 163 163 163 162 161 155 155 170 166 161 157 157 154 150 144 144 146 154 154 167 174 183 195 206 218 231 249 257 253 256 264 267 271
251 225 218 209 204 204 210 229 199 181 174 168 166 169 168 166 163 160 161 158 159 169 164 164 150 143 138 138 139 144 145 149 146 156 174 183 205 203 217 230 237 250 263 271 273 275 294
228 214 206 202 198 202 207 212 185 178 179 173 174 172 169 164 163 161 165 165 165 171 161 152 148 150 151 154 153 148 147 146 154 171 157 153 157 158 162 173 189 252 307 311 318 320 330
202 204 197 197 197 193 206 196 182 183 182 181 176 173 168 167 167 166 169 170 167 161 154 156 159 156 154 156 152 155 157 156 156 145 140 134 131 130 124 103 71 15 344 331 325 319 321
197 195 191 193 196 189 200 186 183 188 186 182 179 173 171 172 169 170 170 168 167 162 163 164 157 156 158 162 170 165 161 152 147 142 140 134 124 101 69 25 350 329 330 324 311 296 292
192 188 187 192 191 189 193 183 189 193 189 183 183 177 173 174 175 173 173 173 172 173 170 164 164 167 173 169 165 164 160 153 154 151 144 135 125 112 325 303 301 301 296 297 294 297 295
188 184 186 192 185 191 188 187 193 192 190 187 185 177 177 178 177 176 180 180 179 178 172 172 177 181 179 173 176 172 163 153 154 165 174 189 219 242 273 299 312 320 310 299 299 311 314
184 180 186 191 183 192 189 189 193 192 191 191 187 178 181 181 182 185 187 189 184 180 178 178 184 183 180 176 176 169 170 177 181 194 209 231 252 268 285 303 306 307 312 317 318 315 315
180 181 186 188 184 191 188 190 193 194 193 193 187 183 183 184 186 190 192 192 189 187 186 187 189 187 191 193 192 189 193 201 213 225 242 259 269 282 292 297 307 318 324 321 321 320 320
175 183 186 183 188 189 187 191 194 194 195 192 186 188 189 186 190 193 194 196 196 194 193 197 196 201 201 204 204 204 214 223 233 244 255 267 279 290 302 307 309 313 312 312 317 320 322
177 183 185 184 190 188 188 190 197 194 193 191 189 190 189 196 198 200 199 202 204 199 192 197 204 209 216 219 222 225 229 240 250 259 269 272 277 285 294 303 308 309 310 316 320 317 314
181 182 186 182 188 187 189 192 194 198 193 193 193 191 198 202 200 203 212 210 211 205 202 209 220 220 231 241 248 252 253 257 264 268 274 278 281 287 294 300 302 306 312 316 318 319 316
181 186 187 181 190 188 190 192 195 194 200 193 194 196 202 210 205 208 212 214 219 217 219 220 228 240 247 254 258 260 263 265 267 270 276 282 286 291 296 297 301 308 311 315 317 316 317
184 188 188 182 192 191 193 193 195 198 203 198 197 199 204 210 212 217 217 215 222 227 226 231 234 242 245 250 255 260 266 270 271 275 279 283 287 293 292 295 300 303 309 313 314 314 317
187 190 186 185 193 195 194 197 197 200 204 200 202 204 207 213 221 224 222 220 228 234 235 237 239 242 246 248 254 261 268 272 275 276 281 285 288 287 288 295 301 305 308 311 312 315 318
189 190 186 188 195 196 197 200 199 201 204 202 206 210 212 215 220 226 224 227 232 236 235 239 240 242 249 257 263 266 269 271 272 279 283 282 283 288 293 297 301 303 306 309 309 312 315
189 191 191 187 196 199 198 197 200 203 205 206 212 214 217 218 219 223 225 230 234 238 239 240 245 251 255 262 265 264 269 268 270 277 284 289 289 292 296 297 299 302 306 307 308 311 314
189 192 194 192 194 202 202 202 203 206 208 207 213 219 222 223 224 228 234 239 240 242 242 246 250 254 257 257 260 262 265 272 274 280 284 287 290 290 291 294 298 301 303 305 308 310 312
Height
10636 10630 10627 10618 10608 10606 10603 10598 10595 10594 10591 10590 10588 10588 10588 10587 10587 10588 10589 10591 10594 10599 10603 10609 10613 10617 10622 10628 10634 10642 10648 10653 10657 10663 10667 10671 10675 10681 10687 10696 10703 10703 10707 10716 10722 10721 10725
10624 10620 10617 10611 10600 10598 10596 10592 10589 10588 10586 10584 10583 10582 10581 10581 10581 10584 10586 10589 10591 10595 10600 10605 10610 10614 10620 10627 10633 10639 10646 10650 10656 10660 10666 10669 10671 10677 10684 10690 10695 10693 10699 10704 10710 10714 10717
10613 10610 10607 10601 10593 10589 10588 10585 10584 10584 10580 10579 10577 10576 10576 10576 10578 10581 10583 10587 10589 10593 10598 10603 10608 10612 10618 10624 10630 10635 10639 10645 10650 10653 10658 10663 10668 10673 10676 10681 10684 10689 10693 10698 10702 10707 10709
10603 10599 10597 10592 10584 10582 10581 10578 10579 10578 10575 10574 10571 10570 10571 10572 10575 10578 10582 10585 10588 10593 10598 10603 10607 10612 10617 10622 10626 10631 10636 10641 10645 10650 10654 10658 10663 10666 10670 10676 10680 10685 10687 10690 10694 10696 10699
10592 10589 10588 10584 10577 10575 10574 10574 10574 10572 10569 10567 10566 10565 10567 10570 10573 10577 10580 10584 10588 10593 10597 10601 10605 10609 10614 10619 10623 10627 10632 10637 10641 10644 10649 10654 10659 10664 10667 10672 10676 10679 10680 10683 10686 10689 10691
10577 10578 10578 10576 10570 10568 10569 10570 10570 10567 10564 10562 10561 10563 10565 10568 10572 10576 10579 10583 10587 10592 10597 10600 10605 10609 10612 10616 10620 10625 10630 10634 10638 10642 10646 10652 10657 10659 10662 10665 10669 10673 10675 10674 10678 10681 10683
10566 10568 10569 10568 10564 10563 10564 10567 10566 10563 10559 10558 10558 10560 10563 10567 10572 10576 10579 10583 10588 10593 10596 10599 10603 10607 10611 10614 10619 10624 10629 10632 10636 10640 10644 10648 10651 10654 10659 10663 10664 10668 10666 10667 10672 10673 10677
10554 10559 10562 10559 10558 10558 10560 10563 10562 10560 10556 10555 10557 10559 10563 10568 10571 10574 10578 10583 10588 10594 10596 10599 10603 10608 10611 10614 10619 10622 10627 10631 10634 10638 10641 10645 10649 10651 10654 10658 10659 10660 10660 10661 10666 10665 10669
10543 10548 10554 10550 10550 10553 10556 10559 10558 10556 10555 10555 10557 10558 10563 10567 10571 10576 10579 10584 10588 10593 10598 10599 10605 10609 10612 10615 10619 10623 10626 10630 10632 10636 10640 10643 10646 10648 10651 10652 10654 10658 10656 10655 10659 10658 10664
10532 10537 10543 10541 10542 10547 10552 10554 10555 10554 10555 10557 10557 10560 10565 10568 10573 10576 10581 10586 10591 10596 10601 10602 10605 10608 10612 10615 10618 10622 10625 10628 10631 10633 10636 10639 10642 10645 10647 10649 10651 10653 10656 10654 10654 10654 10657
10521 10527 10533 10532 10535 10541 10547 10549 10551 10552 10555 10556 10558 10563 10566 10571 10575 10579 10583 10587 10593 10598 10602 10604 10606 10609 10613 10616 10618 10622 10626 10628 10631 10634 10637 10639 10642 10646 10647 10647 10649 10649 10649 10650 10651 10650 10649
10510 10516 10520 10524 10528 10536 10542 10544 10547 10550 10554 10556 10560 10564 10568 10573 10577 10581 10585 10589 10594 10600 10603 10606 10608 10611 10614 10617 10619 10623 10625 10627 10630 10633 10635 10637 10639 10642 10644 10645 10646 10646 10647 10648 10648 10647 10648
10496 10503 10509 10514 10523 10530 10536 10540 10543 10548 10553 10556 10560 10564 10569 10573 10578 10582 10587 10591 10596 10601 10604 10607 10610 10613 10615 10618 10620 10623 10626 10628 10630 10632 10633 10635 10637 10639 10641 10642 10643 10642 10642 10643 10644 10644 10648
10484 10490 10497 10506 10516 10524 10529 10535 10540 10546 10551 10555 10559 10565 10571 10576 10581 10584 10588 10592 10597 10601 10604 10608 10611 10614 10617 10618 10621 10624 10626 10627 10629 10631 10633 10635 10636 10638 10639 10641 10641 10641 10641 10642 10642 10643 10644
10470 10478 10487 10498 10510 10518 10524 10531 10537 10544 10549 10553 10559 10565 10571 10577 10581 10585 10589 10594 10597 10602 10605 10609 10612 10615 10617 10619 10622 10624 10626 10628 10629 10631 10634 10635 10637 10639 10640 10640 10641 10640 10640 10640 10639 10640 10640
10457 10468 10480 10491 10503 10511 10519 10526 10534 10541 10546 10551 10558 10564 10570 10576 10580 10585 10590 10594 10598 10602 10606 10610 10613 10615 10618 10620 10622 10624 10626 10628 10631 10633 10634 10636 10637 10638 10638 10639 10639 10639 10639 10638 10637 10637 10639
10445 10458 10473 10484 10496 10505 10514 10522 10530 10537 10544 10550 10557 10563 10570 10575 10580 10585 10590 10594 10599 10602 10607 10610 10613 10615 10617 10619 10621 10624 10627 10629 10631 10632 10633 10635 10637 10638 10638 10638 10638 10638 10638 10636 10633 10630 10630
10436 10451 10466 10478 10489 10500 10509 10518 10525 10534 10543 10549 10555 10563 10569 10574 10579 10585 10590 10595 10598 10603 10607 10610 10612 10615 10617 10619 10622 10624 10627 10629 10631 10632 10634 10635 10636 10637 10637 10637 10635 10633 10633 10632 10630 10625 10622
10429 10444 10459 10472 10483 10494 10503 10513 10522 10531 10539 10546 10553 10561 10567 10573 10578 10584 10589 10594 10598 10602 10606 10609 10612 10615 10617 10619 10621 10623 10626 10628 10630 10632 10633 10633 10634 10634 10634 10634 10633 10631 10627 10624 10623 10621 10617
10421 10439 10453 10466 10477 10488 10498 10508 10518 10527 10536 10544 10552 10559 10567 10572 10577 10583 10588 10592 10597 10602 10606 10609 10611 10614 10616 10618 10620 10622 10625 10626 10628 10629 10630 10630 10630 10630 10629 10629 10627 10624 10622 10620 10617 10613 10609
10415 10434 10448 10459 10471 10482 10493 10505 10514 10524 10533 10542 10549 10556 10563 10570 10575 10580 10586 10591 10596 10600 10604 10608 10611 10613 10614 10616 10618 10620 10621 10623 10625 10626 10626 10626 10625 10624 10624 10622 10621 10619 10616 10616 10613 10607 10602
10412 10428 10443 10454 10465 10477 10489 10499 10510 10520 10531 10539 10547 10553 10561 10567 10574 10579 10584 10589 10594 10598 10603 10606 10607 10608 10611 10613 10615 10616 10618 10620 10621 10622 10621 10621 10620 10619 10619 10617 10615 10611 10608 10606 10603 10597 10594
10411 10426 10440 10450 10461 10473 10485 10497 10507 10518 10527 10535 10543 10550 10558 10564 10570 10576 10581 10586 10591 10597 10599 10601 10602 10606 10608 10610 10614 10615 10616 10616 10617 10617 10616 10615 10614 10613 10612 10610 10607 10603 10599 10598 10595 10587 10580
10410 10424 10437 10446 10458 10470 10482 10493 10505 10514 10522 10533 10540 10548 10554 10561 10567 10570 10575 10583 10587 10592 10593 10596 10599 10603 10607 10607 10609 10610 10610 10611 10611 10611 10610 10609 10607 10606 10604 10602 10600 10596 10590 10587 10584 10576 10571
10408 10421 10434 10442 10455 10467 10478 10489 10500 10511 10519 10527 10536 10542 10549 10556 10562 10567 10575 10579 10581 10584 10588 10592 10596 10598 10600 10602 10603 10604 10604 10605 10604 10604 10603 10602 10599 10597 10594 10593 10591 10588 10581 10577 10572 10563 10560
10406 10419 10431 10440 10452 10464 10475 10485 10496 10506 10513 10524 10532 10537 10545 10552 10558 10564 10570 10575 10577 10579 10583 10586 10589 10590 10593 10595 10597 10598 10599 10598 10597 10595 10595 10593 10591 10588 10585 10584 10582 10578 10571 10565 10558 10550 10544
10405 10417 10428 10438 10449 10460 10471 10481 10491 10501 10509 10520 10526 10532 10540 10546 10552 10558 10563 10567 10569 10571 10577 10580 10581 10583 10585 10587 10589 10589 10590 10590 10589 10586 10585 10584 10582 10579 10575 10572 10569 10566 10562 10556 10547 10543 10536
10403 10414 10426 10435 10447 10457 10467 10476 10487 10496 10505 10514 10522 10528 10534 10540 10546 10552 10557 10560 10562 10565 10569 10572 10573 10575 10577 10579 10579 10579 10581 10581 10579 10578 10574 10574 10571 10567 10563 10558 10558 10552 10548 10542 10534 10528 10522
10401 10411 10423 10433 10443 10453 10462 10472 10481 10492 10500 10508 10515 10521 10528 10534 10539 10544 10548 10552 10556 10558 10560 10563 10565 10566 10567 10567 10569 10570 10571 10571 10569 10569 10564 10563 10559 10555 10551 10546 10543 10540 10534 10528 10522 10514 10506